THOR ABLESTAR DEB, 130

Orbit data source: Space-Track

THOR ABLESTAR DEB, 130 is space debris in LEO originally from a launch on Thu, 29 Jun 1961 UTC launched from the Air Force Eastern Test Range (AFETR). Debris objects in space refer to the collection of defunct objects orbiting the Earth. Examples of debris include non-operational satellites, rocket bodies, and fragments generated from explosions, collisions, or faulty payload assembly.

Loading next visibility...
Identifier
130, 1961-015Q
Orbit
LEO
Country
Flag of USUS
Related business
Manufacturer
Unknown
Mission
Spacecraft
Bus & Motor
Unknown
Mass
Unknown
Launch date (UTC)
1961-06-29 (65 years ago)
Launch vehicle
Unknown
Launch site
Air Force Eastern Test Range (AFETR)
Object type
Payload
Rocket body
Debris
Shape & HBR
Unknown shape, 0.5 m
Radar Cross Section
Medium (>0.1 m² and <1 m²)

Expand to show TLE details & history
Last TLE update: 10 hours ago

TLE from 10 hours ago
0 THOR ABLESTAR DEB
1 00130U 61015Q   26140.51654485 -.00000010  00000-0  45497-4 0  9993
2 00130  66.7709 320.3771 0091109 306.4843  52.7870 13.99421882307581
Epoch: 2026-05-20T12:23Z
TLE epoch observation values (Epoch: 2026-05-20T12:23:49.475Z)
Latitude
-0.00002°
Longitude
-103.75403°
Altitude
858.182 km
Speed
7.444 km/s
True Right ascension
21h 21m 30s
True Declination
0° 00' 00"
Sunlit
Object was in daylight at epoch
Visualization orbit readout
Latitude
Unknown
Longitude
Unknown
Altitude
Unknown
Speed
Unknown
Apparent Right ascension
Unknown
Apparent Declination
Unknown
Sunlit
N/A
Visualization observer readout
Local Sidereal Time
07:41:25
Azimuth
Unknown
Elevation
Unknown
Doppler factor
Unknown
Orbital elements
Apogee altitude
960.445 km
Perigee altitude
827.93 km
Semi-major axis
7,272.325 km
Eccentricity
0.00911
Inclination
66.7709°
RAAN
320.3771°
Arg. of periapsis
306.4843°
True anomaly
53.62419°
Mean anomaly
52.787°
Eccentric anomaly
53.20502°
Mean motion
3.49972 °/min
Orbital period
102.87 mins
BSTAR
0.000045497
Loading maneuver chart data...
Computing Atmospheric mass density...

Documentation

Showing up to 5 results
|